Showing default

LEOPARD, 67687

Orbit data source: Space-Track

LEOPARD, 67687 is a payload satellite owned by Kyutech (JP) in LEO that was delivered to the ISS. Payload-class satellites include a variety of spacecraft equipped with specific instruments for various scientific and technological missions. These include communications satellites like Starlink; space stations such as the ISS; scientific satellites like the Hubble; Earth observation satellites from companies like Planet Labs, Umbra, and HawkEye 360; GPS; miniature CubeSats for education and research; and military/defense satellites.

Loading next visibility...
Identifier
67687, 1998-067YD
Orbit
LEO
Country
Flag of JPJP / JPN
Related business
Manufacturer
Kyutech
Mission
Operational spacecraft
Bus & Motor
CUBESAT 3U, Unknown motor
Mass
3 kg wet, 3 kg dry
Launch date (UTC)
1998-11-20 (28 years ago)
Launch vehicle
H3-24W
Launch site
Tyuratam Missile And Space Complex (TTMTR)
Object type
Payload
Rocket body
Debris
Shape & HBR
BOX+ 2 PAN, 0.1 m
Radar Cross Section
Medium (>0.1 m² and <1 m²)

Expand to show TLE details & history
Last TLE update: 2 days ago

TLE from 2 days ago
0 LEOPARD
1 67687U 98067YD  26252.23486281  .00135183  00000-0  98015-3 0  9992
2 67687  51.6242 227.5306 0007916 109.4025 250.7829 15.72444185 33375
Epoch: 2026-09-09T05:38Z
TLE epoch observation values (Epoch: 2026-09-09T05:38:12.146Z)
Latitude
-0.00007°
Longitude
154.6901°
Altitude
354.418 km
Speed
7.697 km/s
True Right ascension
15h 10m 07s
True Declination
0° 00' 00"
Sunlit
Object was in daylight at epoch
Visualization orbit readout
Latitude
Unknown
Longitude
Unknown
Altitude
Unknown
Speed
Unknown
Apparent Right ascension
Unknown
Apparent Declination
Unknown
Sunlit
N/A
Visualization observer readout
Local Sidereal Time
01:49:28
Azimuth
Unknown
Elevation
Unknown
Doppler factor
Unknown
Orbital elements
Apogee altitude
357.757 km
Perigee altitude
347.101 km
Semi-major axis
6,730.566 km
Eccentricity
0.00079
Inclination
51.6242°
RAAN
227.5306°
Arg. of periapsis
109.4025°
True anomaly
250.69727°
Mean anomaly
250.7829°
Eccentric anomaly
250.74008°
Mean motion
3.93066 °/min
Orbital period
91.59 mins
BSTAR
0.00098015
Loading maneuver chart data...
Computing Atmospheric mass density...

Documentation

Showing up to 5 results
|